Tracking 29495 objects as of 7-Sep-2024
HD Live streaming from Space Station
objects crossing your sky now

FENGYUN 1C DEB

Track FENGYUN 1C DEB now!
10-day predictions


NORAD ID: 31038
Int'l Code: 1999-025BEG
Perigee: 693.0 km
Apogee: 820.4 km
Inclination: 99.1 °
Period: 99.8 minutes
Semi major axis: 7127 km
RCS: 0.0091 m2 (small)
Launch date: May 10, 1999
Source: People's Republic of China (PRC)
Launch site: Taiyaun Space Center, China (TSC)

Note: This is SATELLITE DEBRIS
Your satellite tracking list
Your tracking list is empty




NASA's NSSDC Master Catalog

Two Line Element Set (TLE):
1 31038U 99025BEG 24251.11290891  .00007206  00000-0  20756-2 0  9992
2 31038  99.0630 300.3906 0089361 159.3377 201.1461 14.42716886916072
Source of the keplerian elements: AFSPC